Yakima, WA

1:51 AM PST on February 13, 2016 (GMT -0800)
Yakima Air Term-McAllister

Weather History for KYKM - April, 2013

Change the Weather History Date:

Monday, April 1, 2013

  Actual Average Record
Temperature  
Mean Temperature 59 °F 46 °F  
Max Temperature 80 °F 61 °F 80 °F (2013)
Min Temperature 38 °F 32 °F 20 °F (2007)
Degree Days  
Heating Degree Days 6 18  
Month to date heating degree days 6 18  
Since 1 July heating degree days 4564 5222  
Cooling Degree Days 0 0  
Month to date cooling degree days 0 0  
Year to date cooling degree days 0 0  
Growing Degree Days 8 (Base 50)    
Moisture  
Dew Point 37 °F    
Average Humidity 49    
Maximum Humidity 76    
Minimum Humidity 21    
Precipitation  
Precipitation 0.00 in 0.02 in 0.34 in (1958)
Month to date precipitation 0.00 0.02  
Year to date precipitation 0.90 2.56  
Snow  
Snow 0.00 in 0.00 in 0.00 in (2002)
Month to date snowfall 0.0 0.0  
Year to date snowfall 1.1 8.6  
Since 1 July snowfall 15.3 21.6  
Snow Depth 0.00 in    
Sea Level Pressure  
Sea Level Pressure 29.96 in    
Wind  
Wind Speed 6 mph (West)    
Max Wind Speed 17 mph    
Max Gust Speed 23 mph    
Visibility 10 miles    
Events      
T = Trace of Precipitation, MM = Missing Value Source: NWS Daily Summary

Daily Weather History Graph

Daily Weather History Graph

Search for Another Location

Airport or City:

Trip Planner

Search our weather history database for the weather conditions in past years. The results will help you decide how hot, cold, wet, or windy it might be!

Date:

Astronomy

Apr. 01, 2013 Rise Set
Actual Time 6:40 AM PDT 7:31 PM PDT
Civil Twilight 6:10 AM PDT 8:02 PM PDT
Nautical Twilight 5:33 AM PDT 8:38 PM PDT
Astronomical Twilight 4:55 AM PDT 9:17 PM PDT
Moon 1:00 AM PDT (4/1) 10:17 AM PDT (4/1)
Length of Visible Light 13h 51m
Length of Day
12h 50m
Waning Gibbous, 66% of the Moon is Illuminated
Apr 1
Waning Gibbous
Apr 2
Last Quarter
Apr 10
New
Apr 18
First Quarter
Apr 25
Full

Hourly Weather History & Observations

Time (PDT) Temp. Windchill Dew Point Humidity Pressure Visibility Wind Dir Wind Speed Gust Speed Precip Events Conditions
12:53 AM 43.0 °F 39.5 °F 34.0 °F 71% 29.94 in 10.0 mi West 5.8 mph - N/A   Clear
1:53 AM 41.0 °F 37.1 °F 33.1 °F 73% 29.95 in 10.0 mi WNW 5.8 mph - N/A   Clear
2:53 AM 42.1 °F 37.1 °F 33.1 °F 70% 29.95 in 10.0 mi West 8.1 mph - N/A   Clear
3:53 AM 39.0 °F 34.0 °F 32.0 °F 76% 29.95 in 10.0 mi WSW 6.9 mph - N/A   Clear
4:53 AM 39.0 °F 34.0 °F 32.0 °F 76% 29.95 in 10.0 mi West 6.9 mph - N/A   Clear
5:53 AM 39.0 °F 34.0 °F 32.0 °F 76% 29.95 in 10.0 mi West 6.9 mph - N/A   Clear
6:53 AM 41.0 °F 34.7 °F 33.1 °F 73% 29.96 in 10.0 mi West 10.4 mph - N/A   Clear
7:53 AM 45.0 °F 41.8 °F 36.0 °F 71% 29.98 in 10.0 mi West 5.8 mph - N/A   Clear
8:53 AM 55.9 °F - 39.0 °F 53% 29.99 in 10.0 mi West 9.2 mph - N/A   Clear
9:53 AM 61.0 °F - 39.0 °F 44% 29.99 in 10.0 mi WSW 5.8 mph - N/A   Clear
10:53 AM 66.0 °F - 39.9 °F 38% 29.98 in 10.0 mi WNW 5.8 mph - N/A   Clear
11:53 AM 70.0 °F - 39.9 °F 33% 29.97 in 10.0 mi Calm Calm - N/A   Clear
12:53 PM 73.0 °F - 36.0 °F 26% 29.96 in 10.0 mi Calm Calm - N/A   Clear
1:53 PM 77.0 °F - 35.1 °F 22% 29.94 in 10.0 mi Calm Calm - N/A   Partly Cloudy
2:53 PM 77.0 °F - 37.0 °F 24% 29.93 in 10.0 mi Variable 4.6 mph - N/A   Clear
3:53 PM 77.0 °F - 36.0 °F 23% 29.92 in 10.0 mi South 3.5 mph - N/A   Partly Cloudy
4:53 PM 79.0 °F - 35.1 °F 20% 29.91 in 10.0 mi Calm Calm - N/A   Partly Cloudy
5:53 PM 77.0 °F - 37.0 °F 24% 29.91 in 10.0 mi SW 5.8 mph - N/A   Scattered Clouds
6:53 PM 73.0 °F - 46.0 °F 38% 29.93 in 10.0 mi WNW 6.9 mph - N/A   Scattered Clouds
7:53 PM 64.9 °F - 43.0 °F 45% 29.97 in 10.0 mi West 8.1 mph - N/A   Partly Cloudy
8:53 PM 63.0 °F - 43.0 °F 48% 29.99 in 10.0 mi NNW 9.2 mph - N/A   Clear
9:53 PM 62.1 °F - 42.1 °F 48% 30.00 in 10.0 mi NNW 10.4 mph - N/A   Clear
10:53 PM 61.0 °F - 42.1 °F 50% 30.00 in 10.0 mi North 9.2 mph - N/A   Clear
11:53 PM 60.1 °F - 39.9 °F 47% 30.01 in 10.0 mi NNW 12.7 mph - N/A   Clear